パンスターズ彗星

C/2019 U5 ( PanSTARRS )

English version
Home page
Updated on March 23, 2025

---------------------------------------------------------------------

・ プロフィール

発見日 2019年10月22日
発見光度 21.1等
発見者 Pan-STARRS 1 telescope (Haleakala)

・ 写真集

・ 軌道要素

Epoch 2025 May 5.0 TT = JDT 2460800.5
T 2023 Mar. 29.48627 TT                                 Pike
q   3.6241531            (2000.0)            P               Q
z  -0.0000729      Peri.  181.45182     -0.99909885     +0.00711058
 +/-0.0000002      Node     2.61548     -0.02334841     +0.73122322
e   1.0002640      Incl.  113.51238     -0.03544500     -0.68210120
From 5271 observations 2019 Oct. 11-2025 Feb. 26, mean residual 0".9.

・ 星図

・ 光度変化

        m1 = 2.5 + 5 logΔ + 12.0 log r  [ ,0]  (              〜2023年 3月29日)
        m1 = 3.6 + 5 logΔ + 10.0 log r  [0, ]  (2023年 3月29日〜              )

---------------------------------------------------------------------

軌道要素はM.P.E.C. 2025-D254に掲載されたものです。
星図はステラナビゲータ Ver.10 (アストロアーツ) で作成したものです。
光度グラフはComet for Windowsで作成したものです。

---------------------------------------------------------------------

Copyright(C) Seiichi Yoshida (comet@aerith.net). All rights reserved.